Salisbury, MD

11:43 AM EDT on August 18, 2017 (GMT -0400)
Salisbury-Ocean City Wicomico Regional

Weather History for KSBY - April, 2013

Change the Weather History Date:

Sunday, April 7, 2013

  Actual Average Record
Temperature  
Mean Temperature 50 °F 52 °F  
Max Temperature 67 °F 62 °F 92 °F (1929)
Min Temperature 33 °F 41 °F 23 °F (1943)
Degree Days  
Heating Degree Days 15 14  
Month to date heating degree days 131 103  
Since 1 July heating degree days 3606 4038  
Cooling Degree Days 0 0  
Month to date cooling degree days 0 0  
Year to date cooling degree days 0 2  
Moisture  
Dew Point 38 °F    
Average Humidity 62    
Maximum Humidity 82    
Minimum Humidity 42    
Precipitation  
Precipitation 0.00 in 0.13 in 2.10 in (1988)
Month to date precipitation 1.12 0.93  
Year to date precipitation 12.67 12.31  
Snow  
Snow 0.00 in 0.00 in 1.00 in (2007)
Month to date snowfall 0.0 0.1  
Since 1 July snowfall 2.8 9.2  
Snow Depth 0.00 in    
Sea Level Pressure  
Sea Level Pressure 30.20 in    
Wind  
Wind Speed 8 mph (SSE)    
Max Wind Speed 20 mph    
Max Gust Speed 29 mph    
Visibility 10 miles    
Events      
T = Trace of Precipitation, MM = Missing Value Source: NWS Daily Summary

Daily Weather History Graph

Daily Weather History Graph

Search for Another Location

Airport or City:

Trip Planner

Search our weather history database for the weather conditions in past years. The results will help you decide how hot, cold, wet, or windy it might be!

Date:

Astronomy

Apr. 07, 2013 Rise Set
Actual Time 6:37 AM EDT 7:31 PM EDT
Civil Twilight 6:10 AM EDT 7:58 PM EDT
Nautical Twilight 5:38 AM EDT 8:30 PM EDT
Astronomical Twilight 5:05 AM EDT 9:03 PM EDT
Moon 4:51 AM EDT (4/7) 5:02 PM EDT (4/7)
Length of Visible Light 13h 47m
Length of Day
12h 53m
Waning Crescent, 8% of the Moon is Illuminated
Apr 7
Waning Crescent
Apr 10
New
Apr 18
First Quarter
Apr 25
Full
May 2
Last Quarter

Hourly Weather History & Observations

Time (EDT) Temp. Windchill Dew Point Humidity Pressure Visibility Wind Dir Wind Speed Gust Speed Precip Events Conditions
12:54 AM 37.0 °F - 30.0 °F 76% 30.35 in 10.0 mi Calm Calm - N/A   Unknown
1:54 AM 35.1 °F - 28.9 °F 78% 30.33 in 10.0 mi Calm Calm - N/A   Unknown
2:54 AM 34.0 °F - 28.9 °F 82% 30.30 in 10.0 mi Calm Calm - N/A   Unknown
3:54 AM 33.1 °F 30.0 °F 28.0 °F 82% 30.28 in 10.0 mi East 3.5 mph - N/A   Unknown
4:54 AM 34.0 °F 29.8 °F 28.9 °F 82% 30.28 in 10.0 mi ESE 4.6 mph - N/A   Unknown
5:54 AM 37.0 °F - 30.0 °F 76% 30.30 in 10.0 mi Calm Calm - N/A   Unknown
6:54 AM 34.0 °F 31.0 °F 28.9 °F 82% 30.30 in 10.0 mi East 3.5 mph - N/A   Clear
7:54 AM 39.9 °F - 34.0 °F 79% 30.31 in 10.0 mi Calm Calm - N/A   Clear
8:54 AM 48.9 °F - 37.9 °F 66% 30.29 in 10.0 mi SSE 9.2 mph - N/A   Clear
9:54 AM 55.0 °F - 39.0 °F 55% 30.29 in 10.0 mi SSE 11.5 mph - N/A   Clear
10:54 AM 57.9 °F - 39.9 °F 51% 30.28 in 10.0 mi South 9.2 mph 23.0 mph N/A   Clear
11:54 AM 61.0 °F - 39.9 °F 46% 30.24 in 10.0 mi South 12.7 mph 24.2 mph N/A   Clear
12:54 PM 63.0 °F - 39.9 °F 43% 30.21 in 10.0 mi South 16.1 mph 20.7 mph N/A   Clear
1:54 PM 64.0 °F - 42.1 °F 45% 30.17 in 10.0 mi South 16.1 mph 24.2 mph N/A   Unknown
2:54 PM 64.9 °F - 42.1 °F 43% 30.14 in 10.0 mi SSE 18.4 mph 23.0 mph N/A   Unknown
3:54 PM 64.9 °F - 43.0 °F 45% 30.12 in 10.0 mi South 12.7 mph - N/A   Unknown
4:54 PM 66.0 °F - 43.0 °F 43% 30.11 in 10.0 mi South 11.5 mph - N/A   Unknown
5:54 PM 63.0 °F - 44.1 °F 50% 30.08 in 10.0 mi SSE 15.0 mph 24.2 mph N/A   Clear
6:54 PM 60.1 °F - 42.1 °F 51% 30.06 in 10.0 mi South 10.4 mph 20.7 mph N/A   Clear
7:54 PM 57.9 °F - 43.0 °F 58% 30.09 in 10.0 mi SSE 4.6 mph - N/A   Clear
8:54 PM 55.9 °F - 43.0 °F 62% 30.08 in 10.0 mi SSE 6.9 mph - N/A   Clear
9:54 PM 54.0 °F - 43.0 °F 66% 30.09 in 10.0 mi South 6.9 mph - N/A   Clear
10:54 PM 55.9 °F - 43.0 °F 62% 30.09 in 10.0 mi South 8.1 mph - N/A   Clear
11:54 PM 54.0 °F - 43.0 °F 66% 30.09 in 10.0 mi South 6.9 mph - N/A   Unknown